CW3847 La Orotava ES current weather conditions

sailwx.info

Wind from 334 at 0 knots gusting 1

Air temperature 17.2° C
Dewpoint 13.3° C

Last reported at 2015-May-25 20:47 UTC.
Time now 2015-May-25 21:35 UTC

Location: N 28°23' W 016°31'.
View on Google Maps.

See reports from other nearby stations

  
Tides and Currents Weather Stations Pressure Air Temp Water Temp Dewpoint Dewpoint Depression Visibility Wind Speed Wind Dir Waves Ship Positions
date/time (UTC)wind fromknots sea level pressurealtimeterstation pressurevisibilityair tempwater tempwave heightnotes
2015-May-25 20:47 334 0 gusting 1 17.2
2015-May-25 20:27 348 1 gusting 2 17.2
2015-May-25 20:17 341 1 gusting 2 17.2
2015-May-25 20:07 005 17.2
2015-May-25 19:57 005 1 gusting 2 17.2
2015-May-25 19:37 030 2 gusting 2 17.2
2015-May-25 19:27 340 2 gusting 3 17.8
2015-May-25 19:17 005 0 gusting 1 17.8
2015-May-25 19:07 340 2 gusting 2 17.8
2015-May-25 18:57 349 1 gusting 2 17.8
2015-May-25 18:47 350 2 gusting 2 17.8
2015-May-25 18:37 317 4 gusting 4 18.3
2015-May-25 18:27 016 2 gusting 6 18.3
2015-May-25 18:17 350 1 gusting 2 18.3
2015-May-25 17:57 032 2 gusting 6 18.3
2015-May-25 17:47 016 2 gusting 3 18.9
2015-May-25 17:37 355 3 gusting 6 18.9
2015-May-25 17:27 032 1 gusting 4 19.4
2015-May-25 17:17 331 4 gusting 6 19.4
2015-May-25 17:07 331 6 gusting 6 19.4
2015-May-25 16:47 355 6 gusting 7 20.0
2015-May-25 16:37 335 6 gusting 8 19.4
2015-May-25 16:27 323 2 gusting 8 19.4
2015-May-25 16:17 326 6 gusting 6 18.9
2015-May-25 16:07 340 3 gusting 6 18.9
2015-May-25 15:57 029 2 gusting 3 19.4
2015-May-25 15:47 326 2 gusting 6 19.4
2015-May-25 15:37 344 6 gusting 6 18.9
2015-May-25 15:27 009 5 gusting 8 18.9
2015-May-25 15:17 360 6 gusting 6 18.9
2015-May-25 14:57 342 4 gusting 7 19.4
2015-May-25 14:47 344 4 gusting 6 20.0
2015-May-25 14:37 355 7 gusting 7 20.6
2015-May-25 14:27 296 6 gusting 7 20.0
2015-May-25 14:17 331 7 gusting 8 20.0
2015-May-25 14:07 324 8 gusting 8 20.0
2015-May-25 13:57 346 6 gusting 8 20.0
2015-May-25 13:37 053 0 gusting 6 20.0
2015-May-25 13:27 338 6 gusting 8 20.0
2015-May-25 12:57 342 6 gusting 8 20.0
2015-May-25 12:47 005 6 gusting 7 20.0
2015-May-25 12:37 344 6 gusting 8 20.6
2015-May-25 12:27 331 2 gusting 6 20.0
2015-May-25 12:17 034 2 gusting 6 20.0
2015-May-25 11:57 026 6 gusting 7 20.0
2015-May-25 11:47 067 3 gusting 4 19.4
2015-May-25 11:37 348 4 gusting 8 19.4
2015-May-25 11:07 317 7 gusting 8 20.0
2015-May-25 10:57 350 7 gusting 7 20.0
2015-May-25 10:47 360 6 gusting 8 19.4
2015-May-25 10:27 029 3 gusting 7 19.4
2015-May-25 10:17 344 4 gusting 6 19.4
2015-May-25 10:07 014 6 gusting 8 19.4
2015-May-25 09:47 015 6 gusting 6 18.9
2015-May-25 09:27 051 2 gusting 6 18.9
2015-May-25 08:47 053 2 gusting 3 17.2
2015-May-25 08:37 011 2 gusting 3 16.7
2015-May-25 08:27 019 1 gusting 2 16.7
2015-May-25 08:17 051 2 gusting 2 16.7
2015-May-25 08:07 035 1 gusting 2 16.7
2015-May-25 07:47 258 0 gusting 2 16.1
2015-May-25 07:37 080 1 gusting 1 16.1
2015-May-25 07:27 080 16.1
2015-May-25 07:17 062 2 gusting 2 15.6
2015-May-25 06:57 058 1 gusting 3 15.6
2015-May-25 06:47 040 2 gusting 2 15.6
2015-May-25 06:37 042 2 gusting 2 15.6
2015-May-25 06:17 146 2 gusting 4 15.6
2015-May-25 06:07 165 4 gusting 7 15.0
2015-May-25 05:47 150 3 gusting 7 15.6
2015-May-25 05:37 158 7 gusting 8 15.6
2015-May-25 05:27 168 6 gusting 6 15.6
2015-May-25 05:17 144 2 gusting 5 15.0
2015-May-25 05:07 161 3 gusting 3 15.6
2015-May-25 04:57 147 2 gusting 4 15.0
2015-May-25 04:47 167 3 gusting 5 15.0
2015-May-25 04:37 164 2 gusting 4 15.6
2015-May-25 04:17 163 3 gusting 6 15.6
2015-May-25 04:07 167 2 gusting 2 15.6
2015-May-25 03:57 157 3 gusting 3 15.6
2015-May-25 03:47 156 0 gusting 3 15.0
2015-May-25 03:37 163 2 gusting 2 15.0
2015-May-25 03:27 156 2 gusting 3 15.0
2015-May-25 03:17 167 2 gusting 3 15.0
2015-May-25 03:07 163 5 gusting 5 15.0
2015-May-25 02:27 174 0 gusting 3 15.0
2015-May-25 01:57 173 15.0
2015-May-25 01:47 182 2 gusting 2 15.0
2015-May-25 01:37 171 2 gusting 2 15.0
2015-May-25 01:27 167 3 gusting 4 14.4
2015-May-25 00:57 155 2 gusting 2 14.4
2015-May-25 00:47 171 2 gusting 3 14.4
2015-May-25 00:37 186 1 gusting 2 15.0
2015-May-25 00:17 173 2 gusting 3 15.0
2015-May-24 23:57 193 0 gusting 3 15.6
2015-May-24 23:47 153 1 gusting 1 15.6
2015-May-24 23:27 153 0 gusting 0 15.6
2015-May-24 23:17 155 0 gusting 2 15.6
2015-May-24 23:07 115 0 gusting 4 15.6
2015-May-24 22:57 144 1 gusting 2 15.6
2015-May-24 22:47 154 2 gusting 5 15.6
2015-May-24 22:37 180 4 gusting 7 15.6
2015-May-24 22:27 150 2 gusting 6 15.6
2015-May-24 22:17 162 2 gusting 6 16.1
2015-May-24 21:57 154 2 gusting 4 16.1
2015-May-24 21:27 178 2 gusting 3 16.1
2015-May-24 21:17 173 2 gusting 3 16.1
2015-May-24 21:07 169 1 gusting 2 16.1
2015-May-24 20:57 149 2 gusting 2 16.1
2015-May-24 20:37 355 1 gusting 2 16.7
2015-May-24 20:17 103 0 gusting 1 17.2
2015-May-24 19:57 098 17.2
2015-May-24 19:47 067 17.2
2015-May-24 19:37 061 17.8
2015-May-24 19:27 013 1 gusting 1 17.2
2015-May-24 19:07 005 2 gusting 4 17.2
2015-May-24 18:57 347 2 gusting 3 17.2
2015-May-24 18:47 347 3 gusting 3 17.2
2015-May-24 18:37 040 3 gusting 6 17.8
2015-May-24 18:17 086 2 gusting 4 17.8
2015-May-24 18:07 014 2 gusting 2 17.8
2015-May-24 17:57 011 3 gusting 6 17.8
2015-May-24 17:37 035 3 gusting 4 17.8
2015-May-24 17:27 349 8 gusting 8 17.8
2015-May-24 17:17 024 0 gusting 3 17.8
2015-May-24 17:07 012 6 gusting 6 17.8
2015-May-24 16:57 009 5 gusting 5 17.8
2015-May-24 16:47 005 4 gusting 8 18.3
2015-May-24 16:37 018 5 gusting 9 18.3
2015-May-24 16:27 317 8 gusting 8 18.3
2015-May-24 16:17 005 2 gusting 3 18.9
2015-May-24 15:47 022 4 gusting 5 18.9
2015-May-24 15:37 031 2 gusting 6 19.4
2015-May-24 15:27 005 2 gusting 6 18.9
2015-May-24 15:17 329 3 gusting 8 19.4
2015-May-24 15:07 344 6 gusting 7 19.4
2015-May-24 14:57 333 6 gusting 7 18.9
2015-May-24 14:47 026 3 gusting 8 18.9
2015-May-24 14:37 329 2 gusting 6 18.3
2015-May-24 14:17 026 2 gusting 4 18.3
2015-May-24 13:57 328 4 gusting 7 18.3
2015-May-24 13:47 343 6 gusting 6 18.3
2015-May-24 13:27 025 2 gusting 5 17.8
2015-May-24 13:17 326 4 gusting 7 17.8
2015-May-24 12:57 257 2 gusting 7 17.8
2015-May-24 12:37 351 4 gusting 6 18.3
2015-May-24 12:27 345 6 gusting 7 18.3
2015-May-24 12:07 028 2 gusting 5 17.8
2015-May-24 11:57 316 2 gusting 4 17.8
2015-May-24 11:47 303 1 gusting 2 17.2
2015-May-24 11:37 048 4 gusting 4 17.2
2015-May-24 11:27 053 2 gusting 3 17.2
2015-May-24 10:47 360 4 gusting 8 17.8
2015-May-24 10:27 053 4 gusting 6 18.9
2015-May-24 10:17 047 1 gusting 5 18.3
2015-May-24 09:47 355 2 gusting 7 18.3
2015-May-24 09:27 015 6 gusting 6 17.8
2015-May-24 09:17 328 2 gusting 6 18.3
2015-May-24 09:07 336 3 gusting 3 18.9
2015-May-24 08:57 178 1 gusting 1 18.3
2015-May-24 08:37 105 0 gusting 2 17.8
2015-May-24 07:57 081 0 gusting 2 16.7
2015-May-24 07:37 142 0 gusting 2 15.6
2015-May-24 07:27 101 0 gusting 2 15.0
2015-May-24 07:17 123 2 gusting 4 14.4
2015-May-24 06:57 147 0 gusting 2 13.9
2015-May-24 06:47 188 2 gusting 7 13.9
2015-May-24 06:37 186 4 gusting 8 13.9
2015-May-24 06:27 175 6 gusting 9 13.9
2015-May-24 06:07 161 6 gusting 6 13.9
2015-May-24 05:27 159 2 gusting 4 13.9
2015-May-24 05:07 175 2 gusting 4 13.9
2015-May-24 04:57 162 1 gusting 5 13.3
2015-May-24 04:47 162 2 gusting 4 13.3
2015-May-24 04:37 155 2 gusting 4 13.3
2015-May-24 04:17 153 3 gusting 4 13.9
2015-May-24 04:07 156 3 gusting 5 13.9
2015-May-24 03:47 149 2 gusting 4 13.3
2015-May-24 03:07 168 3 gusting 3 13.9
2015-May-24 02:57 150 2 gusting 4 13.9
2015-May-24 02:47 153 2 gusting 4 13.9
2015-May-24 02:37 146 2 gusting 3 13.9
2015-May-24 02:27 152 1 gusting 1 14.4
2015-May-24 01:57 190 1 gusting 2 14.4
2015-May-24 01:47 163 0 gusting 3 14.4
2015-May-24 01:37 158 3 gusting 4 13.9
2015-May-24 01:27 182 4 gusting 6 14.4
2015-May-24 01:17 160 2 gusting 4 14.4
2015-May-24 01:07 171 2 gusting 3 14.4
2015-May-24 00:57 177 0 gusting 2 14.4
2015-May-24 00:27 171 1 gusting 2 15.0
2015-May-24 00:17 172 1 gusting 2 15.0
2015-May-24 00:07 146 1 gusting 2 14.4
2015-May-23 23:57 183 1 gusting 1 15.0
2015-May-23 23:37 090 1 gusting 2 15.0
2015-May-23 23:07 129 2 gusting 3 15.0
2015-May-23 22:47 147 2 gusting 5 15.0
2015-May-23 22:37 180 2 gusting 6 15.6
2015-May-23 22:27 112 0 gusting 2 15.6
2015-May-23 22:17 091 1 gusting 2 15.6
2015-May-23 22:07 052 0 gusting 2 15.6
2015-May-23 21:57 089 1 gusting 2 15.6
2015-May-23 21:47 030 1 gusting 2 15.6
2015-May-23 21:27 039 1 gusting 2 16.1
2015-May-23 21:17 009 1 gusting 2 16.1